Current weather by "City, St" or "zip code"  
 

Current Conditions: Rochester - Skyhaven Airport, NH

Fair


45.0 F

Last Updated on Oct 31 2020, 1:51 pm EDT
Humidity: 33%
Wind Speed: 3.5 mph
Barometer 30.48 in
Dewpoint: 17.1 F
Visibility: 10.00 mi
Precip: --
Heat Index: NA
Wind Chill: NA
Current conditions at:

Rochester - Skyhaven Airport, NH (KDAW)

Lat: 43.27939 Lon: 70.92426

Local Radar Image active severe weather and emergency alerts image image weather storm and storm spotter reports image weather observation monitoring service image
Local
Radar
Active
Alerts
Storm Reports Obs
Monitoring

Sign-up For Email & Text Message Weather Alert Notification Services



Advertise Here

Observation History for Rochester - Skyhaven Airport, NH


Time Wind
(mph)
Vis
(mi)
Weather Precip (in) Temperature (F) Relative
Humidity
Wind
Chill
(F)
Heat
Index
(F)
Pressure
Air Dwpt altimeter
(in)
sea level
(mb)
Rmks
1:51 pm EDT 3.5 10.00 Fair -- 45.0 17.1 33% NA NA 30.48 1032.1
12:51 pm EDT N 0.0 10.00 Fair -- 44.0 15.1 31% NA NA 30.49 1032.7
11:51 am EDT N 0.0 10.00 Fair -- 42.0 19.0 40% NA NA 30.51 1033.1
10:51 am EDT N 0.0 10.00 Fair -- 38.0 21.9 52% NA NA 30.50 1032.8
9:51 am EDT NW 8.1 10.00 Fair -- 32.0 23.0 69% 25 NA 30.49 1032.7
8:51 am EDT NW 3.5 10.00 Fair -- 27.0 21.9 81% NA NA 30.47 1032.1
7:51 am EDT NW 3.5 10.00 Fair -- 20.0 18.0 92% NA NA 30.44 1030.8
6:51 am EDT N 3.5 10.00 Fair -- 20.0 17.1 89% NA NA 30.40 1029.7
5:51 am EDT N 5.8 10.00 Fair -- 21.0 18.0 88% 13 NA 30.37 1028.6
4:51 am EDT NW 5.8 10.00 Fair -- 22.0 19.0 89% 15 NA 30.35 1027.9
3:51 am EDT NW 5.8 10.00 Fair -- 23.0 19.0 85% 16 NA 30.33 1027.1
2:51 am EDT NW 5.8 10.00 Fair -- 24.0 19.9 84% 17 NA 30.31 1026.4
1:51 am EDT NW 4.6 10.00 Fair -- 24.0 19.0 81% 18 NA 30.28 1025.6
12:51 am EDT NW 5.8 10.00 Fair -- 25.0 19.9 81% 18 NA 30.25 1024.5
11:51 pm EDT NW 5.8 10.00 Fair -- 26.0 19.0 75% 19 NA 30.22 1023.5
10:51 pm EDT N 0.0 10.00 Fair -- 26.0 18.0 71% NA NA 30.19 1022.6
9:51 pm EDT NW 5.8 10.00 Fair -- 30.0 17.1 58% 24 NA 30.17 1021.6
8:51 pm EDT NW 8.1 10.00 Fair -- 31.0 16.0 54% 24 NA 30.13 1020.4
7:51 pm EDT NW 8.1 10.00 Fair -- 29.0 19.0 66% 21 NA 30.10 1019.3
6:51 pm EDT NW 6.9 10.00 Fair -- 31.0 18.0 59% 24 NA 30.06 1018.1
5:51 pm EDT N 4.6 10.00 Fair -- 33.0 18.0 54% 29 NA 30.03 1017.0
4:51 pm EDT N 4.6 10.00 Fair -- 36.0 17.1 46% 32 NA 30.00 1016.0
3:51 pm EDT 4.6 10.00 Fair -- 38.0 18.0 44% 34 NA 29.98 1015.3
2:51 pm EDT N 9.2 10.00 Mostly Cloudy -- 36.0 19.0 50% 29 NA 29.96 1014.7

Regional Weather Observation


Rochester - Skyhaven Airport, NH (KDAW)

Fair
45.0 F

Concord Municipal Airport, NH (KCON)

Fair
42.0 F

Sanford, Sanford Regional Airport, ME (KSFM)

Fair
44.0 F

Pease Air Force Base / Portsmouth, NH (KPSM)

Fair
43.0 F

Fryeburg, Eastern Slopes Regional Airport, ME (KIZG)

Fair
43.0 F

Plymouth Municipal Airport, NH (K1P1)

Fair
42.0 F